This is the latest recevied weather packets stored in our database for station/object SQ9MHX-13. If no packets are shown the sender has not sent any weather packets the latest 1 day(s).
| Time | Temp. | Humidity | Pressure | Rain* | Wind** | Luminosity | Snow |
|---|---|---|---|---|---|---|---|
| 1777963103 | 18.89° C | 45% | 954 hPa | - | 0 m/s | - | - |
| 1777962804 | 18.89° C | 46% | 954.7 hPa | - | 0 m/s | - | - |
| 1777962505 | 17.78° C | 45% | 954.9 hPa | - | 0 m/s | - | - |
| 1777962206 | 17.78° C | 47% | 955.5 hPa | - | 0 m/s | - | - |
| 1777961907 | 17.78° C | 49% | 956.2 hPa | - | 0 m/s | - | - |
| 1777961608 | 17.22° C | 49% | 957.1 hPa | - | 0 m/s | - | - |
| 1777961309 | 17.22° C | 50% | 957.4 hPa | - | 0 m/s | - | - |
| 1777961011 | 17.22° C | 48% | 957.5 hPa | - | 0 m/s | - | - |
| 1777960753 | 16.11° C | 48% | 957.8 hPa | - | 0 m/s | - | - |
| 1777960712 | 16.11° C | 48% | 957.8 hPa | - | 0 m/s | - | - |
| 1777960413 | 16.11° C | 49% | 958.6 hPa | - | 0 m/s | - | - |
| 1777960114 | 16.11° C | 49% | 959.4 hPa | - | 0 m/s | - | - |
| 1777959815 | 16.11° C | 50% | 960 hPa | - | 0 m/s | - | - |
| 1777959517 | 15° C | 51% | 960.2 hPa | - | 0 m/s | - | - |
| 1777959218 | 15° C | 52% | 960.7 hPa | - | 0 m/s | - | - |
| 1777958919 | 15° C | 52% | 961.3 hPa | - | 0 m/s | - | - |
| 1777958620 | 15° C | 53% | 961.9 hPa | - | 0 m/s | - | - |
| 1777958322 | 13.89° C | 53% | 962.4 hPa | - | 0 m/s | - | - |
| 1777958023 | 13.89° C | 56% | 962.7 hPa | - | 0 m/s | - | - |
| 1777957724 | 13.89° C | 53% | 962.8 hPa | - | 0 m/s | - | - |
| 1777957426 | 13.89° C | 54% | 962.9 hPa | - | 0 m/s | - | - |
| 1777957127 | 13.89° C | 53% | 963.7 hPa | - | 0 m/s | - | - |
| 1777956829 | 13.89° C | 56% | 964.4 hPa | - | 0 m/s | - | - |
| 1777956530 | 12.78° C | 58% | 964.9 hPa | - | 0 m/s | - | - |
| 1777956231 | 12.78° C | 56% | 965.3 hPa | - | 0 m/s | - | - |
* Rain since midnight (hover to see other rain measurements)
** Current wind speed in m/s (hover to see current wind gust speed)